x

8452951 - Potter Cove, Prudence Island, Ri (ptcr1) Weather Station

10:12 - Sun 2nd Aug 2015 All times are EDT. -4 hours from GMT.

  • Wind
    3mph, 5mph gusts
  • Air Temp 76°f
  • Sea Pressure 1013.5mb
  • 8452951 - Potter Cove, Prudence Island, Ri
  • 8452951 - Potter Cove, Prudence Island, Ri

More Historic Weather Station data

Upgrade to MSW Pro to gain access to the past 30 days of data for over 8000 Wavebouys and Weather Stations around the globe.

Join Pro

Comparision Forecast

View Surf forecast
   
dim. 08/02 10:12 3 5 mph 1013.5mb 76f
10:06 2 3 mph 1013.5mb 76f
10:00 2 3 mph 1013.5mb 76f
9:54 2 3 mph 1013.6mb 76f
9:48 2 3 mph 1013.6mb 76f
9:42 1 3 mph 1013.6mb 77f
9:36 1 3 mph 1013.6mb 76f
9:30 1 3 mph 1013.6mb 76f
9:24 2 5 mph 1013.5mb 74f
9:18 2 3 mph 1013.5mb 74f
9:12 2 3 mph 1013.6mb 75f
9:06  -  2 mph 1013.6mb 75f
9:00 1 3 mph 1013.5mb 75f
8:54 2 3 mph 1013.5mb 74f
8:48 2 3 mph 1013.4mb 74f
8:42 2 3 mph 1013.4mb 75f
8:36 1 3 mph 1013.3mb 74f
8:30 2 3 mph 1013.2mb 73f
8:24 2 3 mph 1013.1mb 72f
8:18  -  3 mph 1013.1mb 72f
8:12 1 2 mph 1013.2mb 72f
8:06  -  1 mph 1013.2mb 72f
8:00 2 6 mph 1013.2mb 71f
7:54 2 5 mph 1013.1mb 71f
7:48 2 5 mph 1013mb 70f
7:42 2 5 mph 1013mb 71f
7:36 2 5 mph 1013mb 70f
7:30 2 3 mph 1013mb 70f
7:24 3 5 mph 1013mb 69f
7:18 3 5 mph 1012.9mb 69f
7:12 3
mph
1012.9mb 69f
7:06 2 3 mph 1012.8mb 69f
7:00 2 3 mph 1012.7mb 69f
6:54 2 3 mph 1012.7mb 69f
6:48 2 5 mph 1012.6mb 69f
6:42 2 5 mph 1012.5mb 68f
6:36 3 6 mph 1012.4mb 68f
6:30 3 6 mph 1012.4mb 68f
6:24 3 5 mph 1012.3mb 68f
6:18 3 5 mph 1012.2mb 68f
6:12 5
mph
1012.2mb 67f
6:06 2 3 mph 1012.2mb 68f
6:00  -  1 mph 1012.1mb 69f
5:54  -  1 mph 1012mb 69f
5:48  -  1 mph 1011.9mb 67f
5:42  -  2 mph 1011.8mb 67f
5:36 2
mph
1011.8mb 67f
5:30 3 5 mph 1011.7mb 67f
5:24 3 5 mph 1011.6mb 68f
5:18 3 5 mph 1011.5mb 68f
5:12 3 5 mph 1011.5mb 68f
5:06 3 5 mph 1011.5mb 68f
5:00 3 5 mph 1011.4mb 68f
4:54 3
mph
1011.4mb 69f
4:48 2 3 mph 1011.4mb 68f
4:42 2 3 mph 1011.4mb 68f
4:36 2 3 mph 1011.3mb 68f
4:30  -  1 mph 1011.3mb 69f
4:24  -  1 mph 1011.2mb 69f
4:18 1 2 mph 1011.2mb 70f
4:12 1 2 mph 1011.2mb 70f
4:06 2 3 mph 1011.2mb 70f
4:00 1 2 mph 1011.2mb 70f
3:54 2 3 mph 1011.2mb 70f
3:48 3 6 mph 1011.3mb 70f
3:42 2 5 mph 1011.3mb 70f
3:36 3 5 mph 1011.3mb 70f
3:30 2 3 mph 1011.2mb 70f
3:24 3 5 mph 1011.2mb 70f
3:18 3 5 mph 1011.3mb 70f
3:12 3 6 mph 1011.3mb 70f
3:06 2 3 mph 1011.2mb 70f
3:00 2 5 mph 1011.2mb 70f
2:54 1 2 mph 1011.1mb 70f
2:48 1 3 mph 1011.1mb -
2:42 2 6 mph 1011.1mb -
2:36 2 3 mph 1011.1mb -
2:30 2
mph
1011.1mb 70f
2:24  -  1 mph 1011.1mb 70f
2:18 2 3 mph 1011.1mb 71f
2:12  -  1 mph 1011.1mb 70f
2:06  -  1 mph 1011.1mb 71f
2:00 1 2 mph 1011mb 71f
1:54  -  mph 1011.1mb 71f
1:48  -  1 mph 1011mb 70f
1:42  -  1 mph 1011mb 70f
1:36 2 3 mph 1010.9mb 70f
1:30 2 3 mph 1010.9mb 70f
1:24 3 5 mph 1010.8mb 70f
1:18 3 5 mph 1010.8mb 70f
1:12 2 6 mph 1010.8mb 70f
1:06 2
mph
1010.8mb 70f
1:00  -  2 mph 1010.7mb 70f
12:54 2
mph
1010.8mb 71f
12:48 2 3 mph 1010.8mb 71f
12:42 3 6 mph 1010.7mb 71f
12:36 3 6 mph 1010.8mb 71f
12:30 6 8 mph 1010.8mb 71f
12:24 5 7 mph 1010.8mb 70f
12:18 3 5 mph 1010.7mb 70f
12:12 3 5 mph 1010.7mb 71f
12:06 3 5 mph 1010.7mb 71f
12:00 5 6 mph 1010.7mb 71f
sam. 08/01 11:54 5 6 mph 1010.7mb 71f
11:48 5 6 mph 1010.7mb 71f
11:42 3 6 mph 1010.6mb -
11:36 3 6 mph 1010.6mb -
11:30 3 5 mph 1010.6mb 72f
11:24 2 3 mph 1010.5mb 72f
11:18 3 5 mph 1010.5mb 72f
11:12 3 5 mph 1010.5mb 72f
11:06 3 6 mph 1010.5mb 73f
11:00 3 5 mph 1010.4mb 73f
10:54 5 6 mph 1010.4mb 73f
10:48 3 6 mph 1010.4mb 73f
10:42 3 6 mph 1010.4mb 73f
10:36 3 6 mph 1010.4mb 73f
10:30 5 7 mph 1010.3mb 73f
10:24 5 6 mph 1010.2mb 73f
10:18 3 6 mph 1010.1mb 72f
10:12 5 7 mph 1010mb 73f
10:06 3 6 mph 1010.1mb 73f
10:00 5 7 mph 1010.1mb 73f
9:54 2 5 mph 1010.1mb 73f
9:48 2 5 mph 1010.1mb 73f
9:42 3 6 mph 1010.1mb 73f
9:36 5 6 mph 1010.1mb 72f
9:30 2 3 mph 1010.1mb 73f
9:24 2 5 mph 1010.1mb 74f
9:18 2 3 mph 1010mb 74f
9:12 5 7 mph 1010.1mb 74f
9:06 3 6 mph 1009.9mb 74f
9:00 3 5 mph 1009.8mb 74f
8:54 2 3 mph 1009.6mb 74f
8:48 2 3 mph 1009.5mb 74f
8:42 3 5 mph 1009.5mb 74f
8:36 3 5 mph 1009.4mb 74f
8:30 2 3 mph 1009.4mb 74f
8:24 2
mph
1009.3mb 74f
8:18 2 3 mph 1009.2mb 75f
8:12 1 3 mph 1009.1mb 75f
8:06 3 5 mph 1009.1mb 75f
8:00 2 5 mph 1009.1mb 76f
7:54 2 5 mph 1008.9mb 76f
7:48 1 3 mph 1008.9mb -
7:42 2 3 mph 1008.7mb 77f
7:36 1 3 mph 1008.6mb 77f
7:30 2 5 mph 1008.6mb 78f
7:24 2 6 mph 1008.5mb 78f
7:18 2 6 mph 1008.5mb 77f
7:12 2 6 mph 1008.5mb 77f
7:06 2 5 mph 1008.5mb 76f
7:00 1 3 mph 1008.5mb 76f
6:54 2
mph
1008.3mb 77f
6:48 1 2 mph 1008.2mb 77f
6:42  -  1 mph 1008.1mb 78f
6:36 1 3 mph 1008mb 78f
6:30 2 3 mph 1008mb 78f
6:24 2 5 mph 1008mb 78f
6:18 3 7 mph 1007.9mb 78f
6:12 2 5 mph 1007.8mb 78f
6:06 5 8 mph 1007.7mb 78f
6:00 3 8 mph 1007.8mb 78f
5:54 3 7 mph 1007.8mb 78f
5:48 3 8 mph 1007.9mb 78f
5:42 2 5 mph 1007.8mb 78f
5:36 3 8 mph 1007.9mb 79f
5:30 6 13 mph 1007.7mb 79f
5:24 8 14 mph 1007.7mb 79f
5:18 6 9 mph 1007.2mb 80f
5:12 7 13 mph 1007.2mb 81f
5:06 6 10 mph 1007.1mb 81f
5:00 7 11 mph 1007.1mb 81f
4:54 7 13 mph 1007.3mb 80f
4:48 7 11 mph 1007.2mb 80f
4:42 8 14 mph 1007.2mb 80f
4:36 6 11 mph 1007.2mb 80f
4:30 6 13 mph 1007.3mb 80f
4:24 6 11 mph 1007.3mb 82f
4:18 7 11 mph 1007.2mb 83f
4:12 5 8 mph 1007.3mb 81f
4:06 6 14 mph 1007.2mb 82f
4:00 5 10 mph 1007.1mb 82f
3:54 6 11 mph 1007.1mb 80f
3:48 6 10 mph 1007.1mb 79f
3:42 7 13 mph 1007.1mb 80f
3:36 8 18 mph 1007mb 80f
3:30 6 14 mph 1007.1mb 81f
3:24 6 15 mph 1007mb 82f
3:18 7 13 mph 1007.1mb 82f
3:12 6 14 mph 1007.2mb 81f
3:06 7 15 mph 1007.2mb 82f
3:00 7 15 mph 1007.2mb 82f
2:54 8 16 mph 1007.3mb 81f
2:48 7 15 mph 1007.3mb 82f
2:42 7 17 mph 1007.3mb 82f
2:36 7 16 mph 1007.5mb 84f
2:30 7 15 mph 1007.6mb 83f
2:24 8 14 mph 1007.7mb 83f
2:18 7 15 mph 1007.7mb 82f
2:12 7 10 mph 1007.8mb 82f
2:06 9 17 mph 1007.8mb 82f
2:00 9 18 mph 1007.8mb 84f
1:54 11 22 mph 1007.8mb 84f
1:48 10 20 mph 1007.9mb 83f
1:42 11 20 mph 1007.9mb 84f
1:36 9 16 mph 1008mb 84f
1:30 8 11 mph 1008mb 83f
1:24 7 20 mph 1008.1mb 85f
1:18 7 13 mph 1008.1mb 85f
1:12 7 15 mph 1008.2mb 82f
1:06 6 13 mph 1008.2mb 82f
1:00 6 13 mph 1008.3mb 82f
12:54 5 11 mph 1008.3mb 82f
12:48 7 13 mph 1008.3mb 83f
12:42 6 10 mph 1008.4mb 83f
12:36 6 11 mph 1008.4mb 83f
12:30 5 9 mph 1008.4mb 83f
12:24 5 8 mph 1008.4mb 83f
12:18 7 11 mph 1008.4mb 81f
12:12 6 10 mph 1008.4mb 82f
12:06 6 10 mph 1008.4mb 82f
12:00 3 9 mph 1008.4mb 82f
11:54 5 8 mph 1008.5mb 82f
11:48 6 10 mph 1008.5mb 82f
11:42 6 9 mph 1008.5mb 82f
11:36 5 9 mph 1008.5mb 81f
11:30 3 8 mph 1008.5mb 81f
11:24 5 8 mph 1008.5mb 82f
11:18 6 10 mph 1008.6mb 83f
11:12 7 10 mph 1008.6mb 83f
11:06 8 14 mph 1008.6mb 83f
11:00 7 10 mph 1008.7mb 83f
10:54 8 11 mph 1008.6mb 83f
10:48 6 9 mph 1008.6mb 81f
10:42 6 10 mph 1008.6mb 81f
10:36 3 7 mph 1008.7mb 81f
10:30 5 11 mph 1008.7mb 81f
10:24 5 7 mph 1008.7mb 80f
10:18 5 9 mph 1008.7mb 80f
10:12 5 8 mph 1008.7mb 80f
10:06 3 8 mph 1008.7mb 80f
10:00 3 7 mph 1008.7mb 80f
9:54 3 6 mph 1008.7mb 81f
9:48 3 7 mph 1008.6mb 81f
9:42 6 8 mph 1008.6mb 81f
9:36 5 8 mph 1008.6mb 80f
9:30 5 7 mph 1008.7mb 80f
9:24 5 7 mph 1008.6mb 80f
9:18 5 8 mph 1008.6mb 79f
9:12 6 10 mph 1008.7mb 79f
9:06 7 11 mph 1008.7mb 77f
9:00 5 9 mph 1008.6mb 77f
8:54 5 8 mph 1008.6mb 77f
8:48 5 7 mph 1008.6mb 77f
8:42 5 9 mph 1008.6mb 76f
8:36 5 10 mph 1008.5mb 76f
8:30 5 9 mph 1008.6mb 76f
8:24 7 11 mph 1008.6mb 76f
8:18 6 10 mph 1008.6mb 76f
8:12 6 11 mph 1008.5mb 75f
8:06 6 10 mph 1008.6mb 75f
8:00 6 9 mph 1008.5mb 75f
7:54 6 9 mph 1008.6mb 75f
7:48 6 9 mph 1008.6mb 75f
7:42 5 8 mph 1008.6mb 75f
7:36 6 10 mph 1008.6mb 75f
7:30 5 8 mph 1008.6mb 75f
7:24 6 10 mph 1008.6mb 75f
7:18 6 10 mph 1008.5mb 75f
7:12 7 13 mph 1008.5mb 75f
7:06 6 10 mph 1008.5mb 75f
7:00 5 7 mph 1008.6mb 73f
6:54 3 6 mph 1008.6mb 73f
6:48 5 8 mph 1008.5mb 72f
6:42 6 9 mph 1008.5mb 73f
6:36 6 9 mph 1008.5mb 73f
6:30 5 8 mph 1008.5mb 72f
6:24 5 8 mph 1008.5mb 72f
6:18 6 8 mph 1008.5mb 72f
6:12 5 8 mph 1008.5mb 71f
6:06 2 7 mph 1008.5mb 70f
6:00 2 5 mph 1008.5mb 70f
5:54 2 3 mph 1008.5mb 70f
5:48 2 5 mph - -
5:42 2 6 mph 1008.5mb 70f
5:36 2 5 mph 1008.5mb 69f
5:30 5 7 mph 1008.5mb 69f
5:24 3 6 mph 1008.5mb 70f
5:18 6 9 mph 1008.5mb 70f
5:12 5 9 mph 1008.5mb 70f
5:06 3 7 mph 1008.5mb 70f
5:00 3 6 mph 1008.6mb 70f
4:54 3 7 mph 1008.6mb 71f
4:48 5 8 mph 1008.7mb 71f
4:42 5 8 mph 1008.7mb 71f
4:36 5 8 mph 1008.6mb 71f
4:30 3 6 mph 1008.6mb 71f
4:24 3 7 mph 1008.7mb 71f
4:18 3 6 mph 1008.7mb 70f
4:12 2 3 mph 1008.7mb 70f
4:06 2 5 mph 1008.8mb 70f
4:00 1 2 mph 1008.9mb 70f
3:54 2 3 mph 1008.9mb 70f
3:48 2 3 mph 1008.9mb 70f
3:42 2 3 mph 1009mb 70f
3:36 1 2 mph 1009mb 70f
3:30 2 3 mph 1009.1mb 70f
3:24 2 3 mph 1009.1mb 70f
3:18 1 2 mph 1009.2mb 70f
3:12 5 7 mph 1009.2mb 71f
3:06 6 8 mph 1009.2mb 71f
3:00 6 8 mph 1009.2mb 70f
2:54 3 6 mph 1009.2mb 69f
2:48  -  mph 1009.2mb 69f
2:42  -  mph 1009.3mb 69f
2:36  -  mph 1009.3mb 69f
2:30 2 3 mph 1009.4mb 69f
2:24 2 5 mph 1009.4mb 69f
2:18 3 6 mph 1009.5mb 70f
2:12 5 7 mph 1009.5mb 69f
2:06 5 6 mph 1009.5mb 70f
2:00 3 5 mph 1009.6mb 70f
1:54 2 3 mph 1009.7mb 70f
1:48 2 5 mph 1009.7mb 70f
1:42 3 5 mph 1009.8mb 70f
1:36 3 5 mph 1009.9mb 69f
1:30 2 3 mph 1009.9mb 69f
1:24 5 6 mph 1009.9mb 70f
1:18 5 6 mph 1010mb 70f
1:12 2 3 mph 1010mb 70f
1:06 2 3 mph 1010mb 70f
1:00 3 5 mph 1010.1mb 70f
12:54 3 5 mph 1010.1mb 70f
12:48 3 6 mph 1010.2mb 70f
12:42 2 3 mph 1010.3mb 70f
12:36 2 5 mph 1010.3mb 70f
12:30 2 5 mph 1010.3mb 70f
12:24 3 5 mph 1010.4mb 70f
12:18 6
mph
1010.4mb 71f
12:12 5 6 mph 1010.4mb 71f
12:06 5 6 mph 1010.4mb 71f
12:00 5 6 mph 1010.4mb 71f
ven. 07/31 11:54 3 5 mph 1010.4mb 71f
11:48 3 5 mph 1010.3mb 70f
11:42 5 6 mph 1010.4mb 70f
11:36 3 5 mph 1010.4mb 71f
11:30 3 5 mph 1010.4mb 71f
11:24 5 6 mph 1010.4mb 71f
11:18 5 6 mph 1010.4mb 71f
11:12 2 3 mph 1010.3mb 71f
11:06 2 5 mph 1010.3mb 71f
11:00 2 3 mph 1010.3mb 72f
10:54 2 5 mph 1010.3mb 72f
10:48 3 5 mph 1010.2mb 72f
10:42 3 5 mph 1010.2mb 72f
10:36 3 6 mph 1010.2mb 72f
10:30 3 5 mph 1010.2mb 72f
10:24 2 3 mph 1010.2mb 72f
10:18 2 3 mph 1010.2mb 72f
10:12 2 3 mph 1010.2mb 72f
10:06 1 2 mph 1010.2mb 73f
10:00 2 3 mph 1010.2mb 73f
9:54 2 3 mph 1010.1mb 73f
9:48 1 2 mph 1010mb 73f
9:42 1 2 mph 1010mb 73f
9:36 2 3 mph 1010mb 73f
9:30 1 2 mph 1010mb 73f
9:24 2 3 mph 1010mb 74f
9:18 2 5 mph 1009.9mb 74f
9:12 3 5 mph 1009.8mb 74f
9:06 2 3 mph 1009.8mb 75f
9:00 3
mph
1009.7mb 76f
8:54 3 5 mph 1009.6mb 76f
8:48 3 5 mph 1009.5mb 76f
8:42 3
mph
1009.5mb 76f
8:36 3
mph
1009.4mb 76f
8:30 3
mph
1009.4mb 76f
8:24 2
mph
1009.3mb 76f
8:18 2 3 mph 1009.2mb 77f
8:12 3 5 mph 1009.2mb 77f
8:06 3 5 mph 1009.2mb 78f
8:00 2 5 mph 1009.1mb 78f
7:54 3 6 mph 1009.1mb 78f
7:48 3 7 mph 1009mb 79f
7:42 5 7 mph 1008.9mb 80f
7:36 5 8 mph 1008.9mb 80f
7:00 7 10 mph 1008.8mb 83f
6:54 6 13 mph 1008.7mb 83f
6:48 5 8 mph 1008.7mb 83f
6:42 5 8 mph 1008.6mb 83f
6:36 6 10 mph 1008.6mb 83f
6:30 5 9 mph 1008.6mb 84f
6:24 7 14 mph 1008.6mb 84f
6:18 6 10 mph 1008.6mb 85f
6:12 5 10 mph 1008.6mb 85f
6:06 5 8 mph 1008.6mb 85f
6:00 6 9 mph 1008.6mb 85f
5:54 6 9 mph 1008.6mb 85f
5:48 7 13 mph 1008.7mb 85f
5:42 6 9 mph 1008.6mb 85f
5:36 7 13 mph 1008.6mb 85f
5:30 6 10 mph 1008.7mb 84f
5:24 3 7 mph 1008.7mb 84f
5:18 6 9 mph 1008.7mb 84f
5:12 3 9 mph 1008.8mb 86f
5:06 6 9 mph 1008.8mb 85f
5:00 3 7 mph 1008.8mb 85f
4:54 8 11 mph 1008.8mb 83f
4:48 8 11 mph 1008.8mb 83f
4:42 8 14 mph 1008.8mb 84f
4:36 8 13 mph 1008.9mb 84f
4:30 7 10 mph 1008.9mb 85f
4:24 6 9 mph 1008.9mb 86f
4:18 8 16 mph 1008.9mb 86f
4:12 8 13 mph 1008.9mb 86f
4:06 6 10 mph 1008.9mb 86f
4:00 7 10 mph 1008.9mb 86f
3:54 6 10 mph 1008.8mb 86f
3:48 7 14 mph 1008.8mb 86f
3:42 7 14 mph 1008.8mb 86f
3:36 8 13 mph 1008.9mb 86f
3:30 5 9 mph 1008.9mb 86f
3:24 10 16 mph 1008.9mb 86f
3:18 8 15 mph 1008.9mb 86f
3:12 7 13 mph 1009mb 86f
3:06 8 14 mph 1009.1mb 85f
3:00 9 14 mph 1009.1mb 85f
2:54 7 13 mph 1009.1mb 86f
2:48 7 11 mph 1009.2mb 86f
2:42 7 13 mph 1009.2mb 85f
2:36 8 15 mph 1009.3mb 86f
2:30 9 16 mph 1009.3mb 85f
2:24 7 13 mph 1009.4mb 86f
2:18 10 15 mph 1009.4mb 85f
2:12 8 13 mph 1009.4mb 85f
2:06 8 13 mph 1009.5mb 86f
2:00 7 10 mph 1009.5mb 86f
1:54 6 11 mph 1009.5mb 86f
1:48 8 11 mph 1009.5mb 85f
1:42 6 10 mph 1009.6mb 85f
1:36 9 16 mph 1009.6mb 85f
1:30 8 13 mph 1009.7mb 85f
1:24 7 10 mph 1009.7mb 85f
1:18 6 10 mph 1009.8mb 85f
1:12 7 11 mph 1009.9mb 85f
1:06 6 9 mph 1009.9mb 84f
1:00 6 10 mph 1010mb 85f
12:54 6 13 mph 1010mb 85f
12:48 7 14 mph 1010.1mb 85f
12:42 7 11 mph 1010.1mb 85f
12:36 8 14 mph 1010.2mb 84f
12:30 7 11 mph 1010.2mb 84f
12:24 6 10 mph 1010.3mb 84f
12:18 8 13 mph 1010.3mb 84f
12:12 7 9 mph 1010.3mb 84f
12:06 7 10 mph 1010.4mb 84f
12:00 7 11 mph 1010.5mb 84f
11:54 6 9 mph 1010.5mb 84f
11:48 6 10 mph 1010.6mb 85f
11:42 5 11 mph 1010.6mb 84f
11:36 6 10 mph 1010.6mb 83f
11:30 6 10 mph 1010.6mb 83f
11:24 5 8 mph 1010.6mb 83f
11:18 7 10 mph 1010.7mb 83f
11:12 3 6 mph 1010.7mb 82f
11:06 6 9 mph 1010.7mb 82f
11:00 6 10 mph 1010.7mb 82f
10:54 5 8 mph 1010.7mb 82f
10:48 5 6 mph 1010.6mb 82f
10:42 6 8 mph 1010.7mb 81f
10:36 6 8 mph 1010.7mb 81f
10:30 2 6 mph 1010.7mb 81f
10:24 5 7 mph 1010.7mb 80f
10:18 6 7 mph 1010.7mb 80f
10:12 5 7 mph 1010.6mb 80f
10:06 3 8 mph 1010.6mb 81f
10:00 3 8 mph 1010.6mb 81f
9:54 5 10 mph 1010.6mb 80f
9:48 6 8 mph 1010.6mb 80f
9:42 3 7 mph 1010.6mb 80f
9:36 6 8 mph 1010.6mb 80f
9:30 5 7 mph 1010.6mb 80f
9:24 5 7 mph 1010.7mb 79f
9:18 5 8 mph 1010.7mb 79f
9:12 3 7 mph 1010.7mb 79f
9:06 5 9 mph 1010.7mb 79f
9:00 6 10 mph 1010.6mb 79f
8:54 6 10 mph 1010.6mb 78f
8:48 5 9 mph 1010.6mb 78f
8:42 5 8 mph 1010.6mb 78f
8:36 6 9 mph 1010.7mb 77f
8:30 6 10 mph 1010.7mb 77f
8:24 7 10 mph 1010.7mb 76f
8:18 5 9 mph 1010.7mb 76f
8:12 6 9 mph 1010.7mb 76f
8:06 6 10 mph 1010.7mb 76f
8:00 6 9 mph 1010.7mb 75f
7:54 5 7 mph 1010.8mb 75f
7:48 7 9 mph 1010.8mb 75f
7:42 7 8 mph 1010.7mb 75f
7:36 6 11 mph 1010.7mb 75f
7:30 6 8 mph 1010.7mb 74f
7:24 6 10 mph 1010.7mb 74f
7:18 6 9 mph 1010.6mb 74f
7:12 6 9 mph 1010.6mb 74f
7:06 5 6 mph 1010.5mb 73f
7:00 6 8 mph 1010.4mb 73f
6:54 5 9 mph 1010.4mb 73f
6:48 5 8 mph 1010.3mb 73f
6:42 5 7 mph 1010.3mb 73f
6:36 5 8 mph 1010.2mb 73f
6:30 6 8 mph 1010.2mb 72f
6:24 3 7 mph 1010.1mb 72f
6:18 3 6 mph 1010mb 72f
6:12 3 6 mph 1010mb 72f
6:06 5 7 mph 1010mb 72f
6:00 5 7 mph 1009.9mb 71f
5:54 5 8 mph 1009.9mb 71f
5:48 5 7 mph 1009.8mb 71f
5:42 5 7 mph 1009.8mb 71f
5:36 5 7 mph 1009.8mb 72f
5:30 3 6 mph 1009.7mb 72f
5:24 3 5 mph 1009.7mb 72f
5:18 3 5 mph 1009.7mb 72f
5:12 5 7 mph 1009.6mb 72f
5:06 5 7 mph 1009.6mb 72f
5:00 5 6 mph 1009.6mb 72f
4:54 3 6 mph 1009.6mb 73f
4:48 3 6 mph 1009.5mb 73f
4:42 3 6 mph 1009.5mb 73f
4:36 3 5 mph 1009.4mb 73f
4:30 3 6 mph 1009.4mb 73f
4:24 3 5 mph 1009.4mb 73f
4:18 3 6 mph 1009.3mb 73f
4:12 3 5 mph 1009.3mb 73f
4:06 3 5 mph 1009.3mb 73f
4:00 3
mph
1009.3mb 73f
3:54 2 3 mph 1009.4mb 73f
3:48 2 3 mph 1009.4mb 73f
3:42 2 3 mph 1009.4mb 73f
3:36 2 3 mph 1009.3mb 73f
3:30 1 2 mph 1009.3mb 73f
3:24 2 5 mph 1009.3mb 73f
3:18 2 3 mph 1009.4mb 73f
3:12 2 3 mph 1009.4mb 73f
3:06 3 5 mph 1009.5mb 73f
3:00 2 3 mph 1009.5mb 73f
2:54 2 3 mph 1009.4mb 73f
2:48  -  2 mph 1009.5mb 73f
2:42  -  2 mph 1009.5mb 73f
2:36 1 2 mph 1009.5mb 73f
2:30 2
mph
1009.6mb 74f
2:24 1 2 mph 1009.6mb 74f
2:18 1 3 mph 1009.7mb 74f
2:12 3 5 mph 1009.7mb 74f
2:06 3 5 mph 1009.9mb 74f
2:00 3 5 mph 1009.9mb 74f
1:54 3 6 mph 1009.9mb 74f
1:48 3 6 mph 1010mb 74f
1:42 3 6 mph 1010mb 74f
1:36 3 6 mph 1010mb 74f
1:30 5 7 mph 1010mb 74f
1:24 5 7 mph 1010mb 74f
1:18 3 6 mph 1010mb 74f
1:12 5 6 mph 1010mb 74f
1:06 5 6 mph 1010mb 74f
1:00 5 7 mph 1010mb 74f
12:54 3 6 mph 1010mb 74f
12:48 2 3 mph 1010mb 74f
12:42 2 6 mph 1010.1mb 74f
12:36 3 7 mph 1010.2mb 74f
12:30 3 6 mph 1010.3mb 74f
12:24 3 6 mph 1010.3mb 74f
12:18 3 6 mph 1010.3mb 74f
12:12 3 6 mph 1010.3mb 74f
12:06 2 3 mph 1010mb 74f
12:00 1 2 mph 1010mb 74f
jeu. 07/30 11:54 3 5 mph 1010.1mb 74f
11:48 3 5 mph 1010.2mb 74f
11:42 5 6 mph 1010.2mb 74f
11:36 3 6 mph 1010.1mb 74f
11:30 6 11 mph 1010.1mb 74f
11:24 5 7 mph 1010.1mb 74f
11:18 3 6 mph 1010.1mb 74f
11:12 3 7 mph 1010.2mb 74f
11:06 3 5 mph 1010.2mb 74f
11:00 3 6 mph 1010.2mb 74f
10:54 2 6 mph 1010.4mb 74f
10:48 3 6 mph 1010.4mb 74f
10:42 3 6 mph 1010.5mb 74f
10:36 3 7 mph 1010.6mb 74f
10:30 5 7 mph 1010.5mb 74f
10:24 6 8 mph 1010.5mb 74f
10:18 5 8 mph 1010.5mb 74f
10:12 6 9 mph 1010.5mb 74f
10:06 6 9 mph 1010.5mb 74f
10:00 7 10 mph 1010.5mb 74f
9:54 6 9 mph 1010.6mb 74f
9:48 7 14 mph 1010.6mb 74f
9:42 7 11 mph 1010.6mb 74f
9:36 7 11 mph 1010.5mb 74f
9:30 6 9 mph 1010.5mb 74f
9:24 6 11 mph 1010.5mb 73f
9:18 7 10 mph 1010.4mb 73f
9:12 6 8 mph 1010.3mb 73f
9:06 5 9 mph 1010.3mb 73f
9:00 6 10 mph 1010.3mb 73f
8:54 6 10 mph 1010.3mb 73f
8:48 8 13 mph 1010.2mb 73f
8:42 8 15 mph 1010.2mb 73f
8:36 7 14 mph 1010.1mb 73f
8:30 7 13 mph 1010.3mb 73f
8:24 7 14 mph 1010.4mb 73f
8:18 8 15 mph 1010.5mb 73f
8:12 8 14 mph 1010.6mb 74f
8:06 11 22 mph 1010.6mb 74f
8:00 8 14 mph 1010.7mb 73f
7:54 10 18 mph 1010.8mb 73f
7:48 14 22 mph 1010.9mb 73f
7:42 10 16 mph 1010.8mb 75f
7:36 10 17 mph 1010.8mb 75f
7:30 9 16 mph 1010.8mb 75f
7:24 10 16 mph 1010.8mb 75f
7:18 9 15 mph 1010.7mb 75f
7:12 9 17 mph 1010.7mb 76f
7:06 9 16 mph 1010.6mb 76f
7:00 10 17 mph 1010.7mb 76f
6:54 10 17 mph 1010.6mb 76f
6:48 9 21 mph 1010.5mb 76f
6:42 8 17 mph 1010.5mb 77f
6:36 10 18 mph 1010.5mb 77f
6:30 8 13 mph 1010.4mb 77f
6:24 9 18 mph 1010.3mb 77f
6:18 9 16 mph 1010.2mb 77f
6:12 9 17 mph 1010.2mb 77f
6:06 7 14 mph 1010.1mb 77f
6:00 9 16 mph 1010.2mb 77f
5:54 8 17 mph 1010.2mb 78f
5:48 9 15 mph 1010.2mb 78f
5:42 9 20 mph 1010.3mb 78f
5:36 10 18 mph 1010.2mb 78f
5:30 8 17 mph 1010.2mb 78f
5:24 10 17 mph 1010.3mb 78f
5:18 9 16 mph 1010.3mb 78f
5:12 9 15 mph 1010.4mb 78f
5:06 8 14 mph 1010.3mb 79f
5:00 8 15 mph 1010.2mb 79f
4:54 8 15 mph 1010.2mb 79f
4:48 8 15 mph 1010.2mb 79f
4:42 9 16 mph 1010.2mb 80f
4:36 8 17 mph 1010.2mb 80f
4:30 8 15 mph 1010.1mb 79f
4:24 7 13 mph 1010.2mb 80f
4:18 8 15 mph 1010.2mb 80f
4:12 9 18 mph 1010.3mb 81f
4:06 8 16 mph 1010.4mb 81f
4:00 7 13 mph 1010.5mb 81f
3:54 9 15 mph 1010.5mb 81f
3:48 8 18 mph 1010.5mb 82f
3:42 7 14 mph 1010.5mb 82f
3:36 10 16 mph 1010.5mb 82f
3:30 8 15 mph 1010.7mb 80f
3:24 9 16 mph 1010.8mb 80f
3:18 8 13 mph 1010.9mb 81f
3:12 10 22 mph 1011mb 81f
3:06 9 15 mph 1011mb 80f
3:00 8 14 mph 1011.2mb 81f
2:54 7 14 mph 1011.1mb 82f
2:48 9 16 mph 1011.2mb 82f
2:42 8 15 mph 1011.2mb 81f
2:36 8 16 mph 1011.2mb 81f
2:30 9 18 mph 1011.4mb 82f
2:24 8 15 mph 1011.4mb 82f
2:18 9 17 mph 1011.5mb 82f
2:12 7 15 mph 1011.5mb 82f
2:06 7 13 mph 1011.6mb 83f
2:00 8 13 mph 1011.7mb 82f
1:54 7 13 mph 1011.7mb 82f
1:48 9 16 mph 1011.8mb 82f
1:42 8 14 mph 1011.8mb 82f
1:36 7 16 mph 1011.9mb 82f
1:30 9 17 mph 1011.9mb 82f
1:24 8 15 mph 1012mb 83f
1:18 8 14 mph 1012mb 82f
1:12 8 15 mph 1012.1mb 82f
1:06 7 13 mph 1012.1mb 82f
1:00 8 13 mph 1012.2mb 82f
12:54 7 17 mph 1012.2mb 82f
12:48 8 16 mph 1012.2mb 82f
12:42 7 18 mph 1012.2mb 82f
12:36 7 15 mph 1012.3mb 82f
12:30 6 13 mph 1012.3mb 82f
12:24 7 13 mph 1012.3mb 81f
12:18 7 14 mph 1012.3mb 82f
12:12 6 14 mph 1012.4mb 82f
12:06 6 13 mph 1012.4mb 82f
12:00 6 13 mph 1012.4mb 81f
11:54 7 15 mph 1012.5mb 81f
11:48 7 14 mph 1012.6mb 80f
11:42 6 14 mph 1012.6mb 80f
11:30 6 13 mph 1012.6mb 80f
11:24 6 11 mph 1012.6mb 80f
11:18 7 14 mph 1012.6mb 80f
11:12 6 9 mph 1012.6mb 80f
11:06 6 10 mph 1012.6mb 81f
11:00 6 13 mph 1012.6mb 81f
10:54 7 14 mph 1012.7mb 81f
10:48 7 13 mph 1012.7mb 81f
10:42 5 9 mph 1012.7mb 81f
10:36 5 11 mph 1012.7mb 82f
10:30 6 10 mph 1012.7mb 80f
10:24 5 11 mph 1012.7mb 81f
10:18 7 13 mph 1012.8mb 80f
10:12 6 13 mph 1012.7mb 80f
10:06 7 11 mph 1012.8mb 80f
10:00 5 10 mph 1012.8mb 81f
9:54 6 9 mph 1012.9mb 80f
9:48 5 10 mph 1012.9mb 80f
9:42 6 8 mph 1012.9mb 80f
9:36 5 9 mph 1012.9mb 80f
9:30 3 8 mph 1013mb 80f
9:24 3 7 mph 1013.1mb 81f
9:18 5 9 mph 1013.1mb 80f
9:06 5 8 mph 1013.3mb 79f
9:00 5 9 mph 1013.4mb 79f
8:54 5 8 mph 1013.4mb 79f
8:48  -  mph - 78f
8:42  -  mph - 78f
8:36  -  mph - 78f
8:30  -  mph - 78f
8:24  -  mph - 77f
8:18  -  mph - 77f
8:12  -  mph - 77f
8:06  -  mph - 77f
8:00  -  mph - 77f
7:54  -  mph - 76f
7:48  -  mph - 76f
7:30  -  mph - 76f
7:24  -  mph - 76f
7:18  -  mph - 75f
7:12  -  mph - 75f
7:06  -  mph - 75f
7:00  -  mph - 75f
6:54  -  mph - 75f
6:48  -  mph - 75f
6:42  -  mph - 74f
6:36  -  mph - 74f
6:30  -  mph - 74f
6:24  -  mph - 74f
6:18  -  mph - 74f
6:12  -  mph - 74f
6:06  -  mph - 74f
6:00  -  mph - 74f
5:54  -  mph - 74f
5:48  -  mph 1013.1mb 74f
5:42  -  mph 1013.1mb 74f
5:36  -  mph 1013.1mb 74f
5:30  -  mph 1013.1mb 74f
5:24  -  mph 1013.1mb 74f
5:18  -  mph - 74f
5:12  -  mph - 74f
5:06  -  mph - 74f
5:00  -  mph - 74f
4:54  -  mph - 74f
4:48  -  mph - 74f
4:42  -  mph - 74f
4:36  -  mph - 74f
4:30  -  mph - 74f
4:24  -  mph - 74f
4:18  -  mph - 74f
4:12  -  mph - 74f
4:06  -  mph - 74f
4:00  -  mph 1013.1mb 74f
3:54  -  mph 1013.1mb 74f
3:48  -  mph - 74f
3:42  -  mph - 74f
3:36  -  mph - 74f
3:30  -  mph - 74f
3:24  -  mph - 74f
3:18  -  mph - 73f
3:12  -  mph - 73f
3:06  -  mph - 73f
3:00  -  mph - 73f
2:54  -  mph - 73f
2:48  -  mph - 73f
2:42  -  mph - 73f
2:36  -  mph - 74f
2:30  -  mph 1013.4mb 74f
2:24  -  mph 1013.4mb 74f
2:18  -  mph 1013.4mb 74f
2:12  -  mph 1013.5mb 74f
2:06  -  mph 1013.5mb 74f
2:00  -  mph 1013.6mb 74f
1:54  -  mph 1013.5mb 74f
1:48  -  mph 1013.5mb 74f
1:18  -  mph - 74f
1:12  -  mph - 74f
1:06  -  mph - 75f
1:00  -  mph - 75f
12:54  -  mph - 75f
12:48  -  mph - 75f
12:42  -  mph - 75f
12:36  -  mph - 75f
12:30  -  mph - 75f
12:24  -  mph - 75f
12:18  -  mph - 75f
12:12  -  mph - 76f
12:06  -  mph - 76f
12:00  -  mph - 76f
mer. 07/29 11:54  -  mph - 76f
11:48  -  mph - 76f
11:42  -  mph - 76f
11:36  -  mph - 76f
11:30  -  mph - 76f
11:24  -  mph - 75f
11:18  -  mph - 75f
11:12  -  mph - 75f
11:06  -  mph - 76f
11:00  -  mph - 76f
10:54  -  mph - 76f
10:48  -  mph - 75f
10:42  -  mph - 75f
10:36  -  mph - 76f
10:30  -  mph - 76f
10:24  -  mph - 76f
10:18  -  mph - 76f
10:12  -  mph - 76f
10:06  -  mph - 76f
10:00  -  mph - 76f
9:54  -  mph - 76f
9:48 3 7 mph 1013.8mb 76f
9:42 3 8 mph 1013.8mb 76f
9:36 3 6 mph 1013.8mb 76f
9:30  -  mph - 77f
9:24  -  mph - 77f
9:18  -  mph - 77f
9:12  -  mph - 77f
9:06  -  mph - 77f
9:00  -  mph - 77f
8:54  -  mph - 77f
8:48 2 3 mph 1013.6mb 77f
8:42 2 3 mph 1013.7mb 77f
8:36 1 2 mph 1013.6mb 77f
8:30  -  mph 1013.5mb 77f
8:24  -  mph 1013.5mb 77f
8:18  -  mph 1013.5mb 77f
8:12  -  mph 1013.4mb 77f
8:06  -  mph 1013.4mb 77f
8:00  -  mph - 79f
7:54  -  mph - 79f
7:48  -  mph - 79f
7:42  -  mph - 79f
7:36  -  mph - 79f
7:30  -  mph - 80f
7:24  -  mph - 80f
7:18  -  mph - 81f
7:12  -  mph - 81f
7:06  -  mph - 81f
7:00 6 11 mph 1013.2mb 81f
6:54 7 11 mph 1013.1mb 82f
6:48 7 10 mph 1013.1mb 82f
6:42 7 11 mph 1013mb 82f
6:36 7 11 mph 1013.1mb 82f
6:30  -  mph - 82f
6:24  -  mph - 83f
6:18  -  mph - 83f
6:12  -  mph - 83f
6:06  -  mph - 83f
6:00  -  mph - 83f
5:54  -  mph - 83f
5:48  -  mph - 84f
5:42  -  mph - 84f
5:36  -  mph - 83f
5:30  -  mph - 83f
5:24  -  mph - 83f
5:18  -  mph - 83f
5:12  -  mph - 83f
5:06  -  mph - 83f
5:00  -  mph 1013.4mb 83f
4:54  -  mph 1013.4mb 83f
4:48  -  mph 1013.4mb 83f
4:42  -  mph 1013.4mb 83f
4:36  -  mph 1013.4mb 84f
4:30  -  mph 1013.5mb 85f
4:24  -  mph 1013.6mb 85f
4:18  -  mph - 85f
4:12  -  mph - 85f
4:06  -  mph - 85f
4:00  -  mph - 85f
3:54  -  mph - 84f
3:48  -  mph - 84f
3:42  -  mph - 83f
3:36  -  mph - 84f
3:30  -  mph - 83f
3:24  -  mph - 84f
3:18  -  mph - 85f
3:12  -  mph - 85f
3:06  -  mph - 86f